Location: Auttagershofen
(48.1940°N, 10.0237°E)
Time: 02:19:52
(UTC+00:00)

NOSS 8 (E) - Pass Details

Date: 18 January 2026
Orbit: 364 x 1531 km, 63.3° (Epoch: 5 February)

Event Time Altitude Azimuth Distance (km) Brightness Sun altitude
Exits shadow 05:04:50 83° 250° (WSW) 408 4.0 -19.3°
Maximum altitude 05:04:52 84° 231° (SW) 408 4.0 -19.3°
Drops below altitude 10° 05:08:17 10° 142° (SE) 1,594 7.8 -18.7°
Sets 05:10:37 0° 142° (SE) 2,607 9.0 -18.4°
